TimeEDT,TemperatureF,Dew PointF,Humidity,Sea Level PressureIn,VisibilityMPH,Wind Direction,Wind SpeedMPH,Gust SpeedMPH,PrecipitationIn,Events,Conditions,WindDirDegrees,DateUTC
12:12 AM,71.6,71.6,100,29.76,6.0,SSW,3.5,-,N/A,,Mostly Cloudy,210,2013-09-03 04:12:00
12:51 AM,72.0,70.0,93,29.76,7.0,SW,4.6,-,N/A,,Overcast,230,2013-09-03 04:51:00
1:35 AM,71.6,71.6,100,29.75,7.0,Calm,Calm,-,N/A,,Overcast,0,2013-09-03 05:35:00
1:51 AM,72.0,70.0,93,29.74,7.0,Calm,Calm,-,N/A,,Overcast,0,2013-09-03 05:51:00
2:08 AM,71.6,69.8,94,29.74,6.0,South,4.6,-,N/A,,Overcast,180,2013-09-03 06:08:00
2:51 AM,72.0,70.0,93,29.73,6.0,SSW,4.6,-,N/A,,Overcast,200,2013-09-03 06:51:00
3:51 AM,72.0,70.0,93,29.70,7.0,SW,4.6,-,N/A,,Overcast,220,2013-09-03 07:51:00
4:51 AM,72.0,70.0,93,29.72,8.0,SSW,4.6,-,N/A,,Overcast,210,2013-09-03 08:51:00
5:12 AM,71.6,69.8,94,29.74,8.0,SW,3.5,-,N/A,,Overcast,230,2013-09-03 09:12:00
5:51 AM,72.0,69.1,91,29.75,6.0,WSW,3.5,-,N/A,,Overcast,250,2013-09-03 09:51:00
6:51 AM,72.0,69.1,91,29.76,7.0,Calm,Calm,-,N/A,Fog,Patches of Fog,0,2013-09-03 10:51:00
7:08 AM,73.4,69.8,88,29.77,7.0,SW,4.6,-,N/A,Fog,Patches of Fog,230,2013-09-03 11:08:00
7:27 AM,73.4,69.8,88,29.77,7.0,SW,3.5,-,N/A,Fog,Patches of Fog,230,2013-09-03 11:27:00
7:51 AM,73.9,69.1,85,29.78,7.0,WSW,3.5,-,N/A,Fog,Patches of Fog,250,2013-09-03 11:51:00
8:51 AM,75.9,69.1,79,29.79,10.0,Variable,3.5,-,N/A,,Scattered Clouds,0,2013-09-03 12:51:00
9:02 AM,75.2,69.8,83,29.79,10.0,Calm,Calm,-,N/A,,Mostly Cloudy,0,2013-09-03 13:02:00
9:51 AM,77.0,71.1,82,29.79,10.0,South,5.8,-,N/A,,Mostly Cloudy,180,2013-09-03 13:51:00
10:51 AM,77.0,70.0,79,29.79,10.0,SSE,5.8,-,N/A,,Overcast,160,2013-09-03 14:51:00
11:51 AM,73.9,71.1,91,29.76,5.0,SSE,8.1,-,0.00,,Overcast,160,2013-09-03 15:51:00
12:51 PM,73.0,71.1,93,29.77,5.0,SSE,4.6,-,0.00,Rain,Light Rain,150,2013-09-03 16:51:00
1:39 PM,73.4,71.6,94,29.77,5.0,South,8.1,-,0.01,,Overcast,180,2013-09-03 17:39:00
1:49 PM,73.4,71.6,94,29.76,6.0,South,5.8,-,0.01,,Overcast,190,2013-09-03 17:49:00
1:51 PM,73.9,72.0,93,29.76,6.0,SSW,5.8,-,0.01,,Overcast,200,2013-09-03 17:51:00
1:57 PM,73.4,71.6,94,29.75,8.0,South,8.1,-,N/A,Thunderstorm,Thunderstorm,190,2013-09-03 17:57:00
2:07 PM,73.4,71.6,94,29.76,9.0,SSW,10.4,-,N/A,Thunderstorm,Thunderstorm,200,2013-09-03 18:07:00
2:18 PM,73.4,71.6,94,29.75,10.0,South,8.1,-,N/A,Thunderstorm,Thunderstorm,190,2013-09-03 18:18:00
2:51 PM,73.0,69.1,87,29.77,10.0,WSW,10.4,-,0.00,Rain-Thunderstorm,Light Thunderstorms and Rain,250,2013-09-03 18:51:00
3:51 PM,70.0,66.9,90,29.75,6.0,South,10.4,-,0.05,Rain-Thunderstorm,Light Thunderstorms and Rain,190,2013-09-03 19:51:00
4:51 PM,69.1,66.0,90,29.75,10.0,SSE,9.2,-,0.03,Rain-Thunderstorm,Light Thunderstorms and Rain,160,2013-09-03 20:51:00
5:36 PM,69.8,66.2,88,29.75,10.0,South,6.9,-,0.00,,Overcast,190,2013-09-03 21:36:00
5:51 PM,69.1,66.9,93,29.75,10.0,South,4.6,-,0.00,,Overcast,180,2013-09-03 21:51:00
6:22 PM,69.8,68.0,94,29.76,10.0,Calm,Calm,-,N/A,,Overcast,0,2013-09-03 22:22:00
6:47 PM,71.6,68.0,88,29.76,10.0,WSW,4.6,-,N/A,,Overcast,250,2013-09-03 22:47:00
6:51 PM,71.1,68.0,90,29.76,10.0,WSW,5.8,-,N/A,,Overcast,250,2013-09-03 22:51:00
7:31 PM,71.6,68.0,88,29.78,10.0,West,4.6,-,N/A,,Overcast,260,2013-09-03 23:31:00
7:48 PM,69.8,68.0,94,29.79,10.0,WSW,4.6,-,N/A,,Scattered Clouds,250,2013-09-03 23:48:00
7:51 PM,70.0,68.0,93,29.78,10.0,WSW,3.5,-,N/A,,Mostly Cloudy,250,2013-09-03 23:51:00
8:51 PM,69.1,66.0,90,29.81,10.0,West,4.6,-,N/A,,Scattered Clouds,260,2013-09-04 00:51:00
9:51 PM,66.9,64.0,90,29.83,10.0,West,4.6,-,N/A,,Scattered Clouds,260,2013-09-04 01:51:00
10:51 PM,66.0,63.0,90,29.84,10.0,WSW,5.8,-,N/A,,Mostly Cloudy,250,2013-09-04 02:51:00
11:51 PM,64.9,60.1,84,29.84,10.0,West,6.9,-,N/A,,Mostly Cloudy,270,2013-09-04 03:51:00